TimeCST,TemperatureF,Dew PointF,Humidity,Sea Level PressureIn,VisibilityMPH,Wind Direction,Wind SpeedMPH,Gust SpeedMPH,PrecipitationIn,Events,Conditions,WindDirDegrees,DateUTC
12:13 AM,21.2,14.0,74,29.90,10.0,NNW,3.5,-,N/A,,Mostly Cloudy,340,2013-01-06 06:13:00
12:33 AM,21.2,14.0,74,29.90,10.0,NNW,3.5,-,N/A,,Scattered Clouds,330,2013-01-06 06:33:00
12:53 AM,21.2,14.0,74,29.90,10.0,NNW,4.6,-,N/A,,Scattered Clouds,340,2013-01-06 06:53:00
1:14 AM,21.2,12.2,68,29.91,10.0,NNW,4.6,-,N/A,,Scattered Clouds,340,2013-01-06 07:14:00
1:33 AM,21.2,12.2,68,29.91,10.0,NNW,8.1,-,N/A,,Mostly Cloudy,330,2013-01-06 07:33:00
1:53 AM,21.2,12.2,68,29.92,10.0,NNW,8.1,-,N/A,,Overcast,340,2013-01-06 07:53:00
2:13 AM,21.2,12.2,68,29.92,10.0,NNW,8.1,-,N/A,,Overcast,330,2013-01-06 08:13:00
2:33 AM,21.2,12.2,68,29.93,10.0,NNW,6.9,-,N/A,,Overcast,340,2013-01-06 08:33:00
2:53 AM,21.2,12.2,68,29.94,10.0,NNW,8.1,-,N/A,,Mostly Cloudy,340,2013-01-06 08:53:00
3:13 AM,21.2,12.2,68,29.94,10.0,Calm,Calm,-,N/A,,Scattered Clouds,0,2013-01-06 09:13:00
3:33 AM,19.4,12.2,74,29.95,10.0,NNW,6.9,-,N/A,,Scattered Clouds,340,2013-01-06 09:33:00
3:53 AM,19.4,12.2,74,29.95,10.0,North,6.9,-,N/A,,Mostly Cloudy,350,2013-01-06 09:53:00
4:13 AM,19.4,10.4,68,29.96,10.0,NNW,3.5,-,N/A,,Scattered Clouds,330,2013-01-06 10:13:00
4:33 AM,19.4,10.4,68,29.97,10.0,NNW,5.8,-,N/A,,Clear,340,2013-01-06 10:33:00
4:53 AM,19.4,10.4,68,29.97,10.0,North,9.2,16.1,N/A,,Scattered Clouds,350,2013-01-06 10:53:00
5:13 AM,17.6,10.4,73,29.97,10.0,North,6.9,-,N/A,,Scattered Clouds,350,2013-01-06 11:13:00
5:33 AM,17.6,10.4,73,29.98,10.0,NNW,8.1,-,N/A,,Scattered Clouds,330,2013-01-06 11:33:00
5:53 AM,17.6,8.6,68,30.00,10.0,NNW,5.8,-,N/A,,Scattered Clouds,340,2013-01-06 11:53:00
6:13 AM,17.6,8.6,68,30.01,10.0,Calm,Calm,-,N/A,,Scattered Clouds,0,2013-01-06 12:13:00
6:33 AM,17.6,8.6,68,30.02,10.0,North,5.8,-,N/A,,Scattered Clouds,360,2013-01-06 12:33:00
6:53 AM,15.8,6.8,68,30.03,10.0,North,5.8,-,N/A,,Clear,360,2013-01-06 12:53:00
7:13 AM,15.8,6.8,68,30.04,10.0,North,3.5,-,N/A,,Clear,360,2013-01-06 13:13:00
7:33 AM,15.8,6.8,68,30.05,10.0,North,4.6,-,N/A,,Clear,360,2013-01-06 13:33:00
7:53 AM,15.8,6.8,68,30.06,10.0,North,8.1,-,N/A,,Clear,350,2013-01-06 13:53:00
8:13 AM,15.8,6.8,68,30.07,10.0,NNW,5.8,-,N/A,,Clear,340,2013-01-06 14:13:00
8:33 AM,17.6,8.6,68,30.07,10.0,Calm,Calm,-,N/A,,Scattered Clouds,0,2013-01-06 14:33:00
8:53 AM,19.4,8.6,63,30.07,10.0,North,5.8,-,N/A,,Scattered Clouds,360,2013-01-06 14:53:00
9:33 AM,19.4,8.6,63,30.09,10.0,NW,4.6,-,N/A,,Clear,320,2013-01-06 15:33:00
9:53 AM,21.2,8.6,58,30.10,10.0,NW,5.8,-,N/A,Snow,Light Snow,320,2013-01-06 15:53:00
10:13 AM,21.2,8.6,58,30.10,10.0,NNW,3.5,-,N/A,Snow,Light Snow,330,2013-01-06 16:13:00
10:33 AM,23.0,6.8,50,30.09,10.0,NNE,3.5,-,N/A,,Clear,20,2013-01-06 16:33:00
10:53 AM,24.8,8.6,50,30.10,10.0,Calm,Calm,-,N/A,,Clear,0,2013-01-06 16:53:00
11:13 AM,24.8,6.8,46,30.10,10.0,NNW,3.5,-,N/A,,Clear,340,2013-01-06 17:13:00
11:33 AM,24.8,6.8,46,30.10,10.0,Calm,Calm,-,N/A,,Clear,0,2013-01-06 17:33:00
11:53 AM,24.8,6.8,46,30.09,10.0,Calm,Calm,-,N/A,,Clear,0,2013-01-06 17:53:00
12:13 PM,24.8,6.8,46,30.09,10.0,Calm,Calm,-,N/A,,Clear,0,2013-01-06 18:13:00
12:33 PM,26.6,8.6,47,30.09,10.0,Calm,Calm,-,N/A,,Clear,0,2013-01-06 18:33:00
12:53 PM,28.4,8.6,43,30.08,10.0,Calm,Calm,-,N/A,,Clear,0,2013-01-06 18:53:00
1:13 PM,28.4,8.6,43,30.07,10.0,Calm,Calm,-,N/A,,Clear,0,2013-01-06 19:13:00
1:33 PM,26.6,6.8,43,30.07,10.0,Calm,Calm,-,N/A,,Clear,0,2013-01-06 19:33:00
1:53 PM,26.6,6.8,43,30.08,10.0,Calm,Calm,-,N/A,,Clear,0,2013-01-06 19:53:00
2:13 PM,24.8,8.6,50,30.09,10.0,South,5.8,-,N/A,,Clear,180,2013-01-06 20:13:00
2:53 PM,21.2,10.4,63,30.09,10.0,South,5.8,-,N/A,,Clear,180,2013-01-06 20:53:00
3:13 PM,23.0,10.4,59,30.09,10.0,SSW,3.5,-,N/A,,Clear,210,2013-01-06 21:13:00
3:33 PM,21.2,10.4,63,30.09,10.0,South,6.9,-,N/A,,Clear,190,2013-01-06 21:33:00
3:53 PM,21.2,10.4,63,30.10,10.0,South,4.6,-,N/A,,Clear,190,2013-01-06 21:53:00
4:13 PM,19.4,10.4,68,30.09,10.0,SSW,6.9,-,N/A,,Clear,200,2013-01-06 22:13:00
4:53 PM,15.8,8.6,73,30.09,10.0,SW,4.6,-,N/A,,Clear,220,2013-01-06 22:53:00
5:13 PM,14.0,6.8,73,30.09,10.0,Calm,Calm,-,N/A,,Clear,0,2013-01-06 23:13:00
5:33 PM,12.2,6.8,79,30.08,10.0,Calm,Calm,-,N/A,,Clear,0,2013-01-06 23:33:00
5:53 PM,12.2,6.8,79,30.07,10.0,Calm,Calm,-,N/A,,Clear,0,2013-01-06 23:53:00
6:13 PM,10.4,6.8,85,30.07,10.0,Calm,Calm,-,N/A,,Clear,0,2013-01-07 00:13:00
6:33 PM,10.4,5.0,79,30.06,10.0,Calm,Calm,-,N/A,,Clear,0,2013-01-07 00:33:00
6:53 PM,8.6,3.2,79,30.05,10.0,Calm,Calm,-,N/A,,Clear,0,2013-01-07 00:53:00
7:33 PM,6.8,1.4,79,30.05,10.0,Calm,Calm,-,N/A,,Clear,0,2013-01-07 01:33:00
7:53 PM,6.8,1.4,79,30.04,10.0,Calm,Calm,-,N/A,,Clear,0,2013-01-07 01:53:00
8:13 PM,6.8,1.4,79,30.05,10.0,Calm,Calm,-,N/A,,Clear,0,2013-01-07 02:13:00
8:33 PM,5.0,-0.4,78,30.03,10.0,Calm,Calm,-,N/A,,Clear,0,2013-01-07 02:33:00
8:53 PM,5.0,-0.4,78,30.04,10.0,Calm,Calm,-,N/A,,Clear,0,2013-01-07 02:53:00
9:53 PM,1.4,-2.2,85,30.01,10.0,Calm,Calm,-,N/A,,Clear,0,2013-01-07 03:53:00
10:13 PM,1.4,-2.2,85,30.00,10.0,Calm,Calm,-,N/A,,Clear,0,2013-01-07 04:13:00
10:33 PM,1.4,-5.8,72,29.99,10.0,Calm,Calm,-,N/A,,Clear,0,2013-01-07 04:33:00
10:53 PM,1.4,-4.0,78,29.98,10.0,Calm,Calm,-,N/A,,Clear,0,2013-01-07 04:53:00
11:33 PM,1.4,-4.0,78,29.95,10.0,Calm,Calm,-,N/A,,Clear,0,2013-01-07 05:33:00
11:53 PM,1.4,-2.2,85,29.93,10.0,Calm,Calm,-,N/A,,Clear,0,2013-01-07 05:53:00